Lexington Weather

Lexington, Massachusetts, USA

34°F
10/30/2020 6:43am 
  • Lexington Conditions: Light snow, Mist, Overcast
  • Temperature: 34.2°F / 1.2°CColder 1.2°F than last hour.
  • Dew Point: 33.4°FDecreased 1.3°Fsince last hour.
  • Relative Humidity: 97
  • Wind: Wind from NNE NNE 2 mph, 10-min avg: 2 mph, gust: 8 mph
  • Barometer: 29.76 in Steady
  • Visibility: 4 miles
  • Rain Today: 0.09 in
  •   
Southeast Middlesex County - Winter Weather Advisory
 - SEE ALL NEARBY ALERTS -

Regional Weather Roundup
for Boston / Norton, MA

        
000
ASUS41 KBOX 241204
RWRBOX

REGIONAL WEATHER ROUNDUP
NATIONAL WEATHER SERVICE BOSTON/NORTON MA
800 AM EDT SAT OCT 24 2020

NOTE:  "FAIR" INDICATES FEW OR NO CLOUDS BELOW 12,000 FEET WITH NO 
SIGNIFICANT WEATHER AND/OR OBSTRUCTIONS TO VISIBILITY.

MAZALL-241300-
EASTERN MASSACHUSETTS
  
CITY           SKY/WX    TMP DP  RH WIND       PRES   REMARKS
BOSTON         PTCLDY    55  52  89 S6        29.94F                  
6HR MIN TEMP:  55; 6HR MAX TEMP:  56;                                

BEVERLY        PTCLDY    56  52  86 CALM      29.92F                  
LAWRENCE       CLOUDY    57  52  83 SW6       29.95F                  
BEDFORD        CLOUDY    56  53  90 S7        29.92F                  
BLUE HILL        N/A     54  52  93 S9        29.93F                  
NORWOOD        PTCLDY    56  52  86 CALM      29.93F                  
MARSHFIELD     PTCLDY    57  54  88 CALM      29.94F                  
PLYMOUTH       MOCLDY    55  51  86 SE3       29.94F                  
TAUNTON        CLOUDY    57  53  86 CALM      29.95F                  
NEW BEDFORD    PTCLDY    56  52  86 CALM      29.94F                  
$$

MAZALL-241300-
CAPE COD AND THE ISLANDS
  
CITY           SKY/WX    TMP DP  RH WIND       PRES   REMARKS
FALMOUTH       CLOUDY    57  52  82 SW6       29.99S                  
HYANNIS        CLOUDY    58  53  84 W6        29.95S                  
CHATHAM        CLOUDY    58  54  86 CALM      29.97F                  
PROVINCETOWN   CLOUDY    57  53  86 SW8       29.96F                  
NANTUCKET      CLOUDY    57  57 100 W5        29.96F                  
MARTHAS VNYRD  CLOUDY    57  53  86 CALM      29.97S                  
$$
 
MAZALL-241300-
CENTRAL AND WESTERN MASSACHUSETTS
  
CITY           SKY/WX    TMP DP  RH WIND       PRES   REMARKS
WORCESTER      FOG       54  53  97 SW10      29.94F VSB 1/4          
6HR MIN TEMP:  54; 6HR MAX TEMP:  55;                                

FITCHBURG      CLOUDY    55  55 100 S7        29.93F FOG              
ORANGE         CLOUDY    60  57  89 S7        29.93S                  
SPRINGFIELD    CLOUDY    60  58  90 S7        29.91F                  
WESTFIELD      CLOUDY    60  59  96 S8        29.91F                  
NORTH ADAMS    CLOUDY    63  56  78 CALM      29.89F                  
PITTSFIELD     CLOUDY    61  56  83 SW8       29.90F                  
$$
 
RIZALL-241300-
RHODE ISLAND
  
CITY           SKY/WX    TMP DP  RH WIND       PRES   REMARKS
PROVIDENCE     PTCLDY    57  55  93 SW3       29.95F                  
6HR MIN TEMP:  56; 6HR MAX TEMP:  58;                                

NEWPORT        PTCLDY    56  54  93 CALM      29.95F                  
BLOCK ISLAND   CLOUDY    59  54  83 S6        29.96F                  
SMITHFIELD     MOCLDY    55  54  96 CALM        N/A                   
WESTERLY       CLOUDY    57  54  89 CALM      29.96F                  
$$
 
CTZALL-241300-
CONNECTICUT
  
CITY           SKY/WX    TMP DP  RH WIND       PRES   REMARKS
BRADLEY INTL   CLOUDY    61  57  87 S10       29.93S                  
6HR MIN TEMP:  59; 6HR MAX TEMP:  61;                                

HARTFORD       CLOUDY    61  57  87 S9        29.93F                  
BRIDGEPORT     CLOUDY    64  60  87 SW8       29.94F                  
DANBURY        CLOUDY    61  59  93 S3        29.93F                  
GROTON         CLOUDY    60  55  83 S8        29.95F                  
NEW HAVEN      CLOUDY    65  61  87 S7        29.94F                  
CHESTER        CLOUDY    59  59 100 CALM      29.95F                  
MERIDEN        CLOUDY    61  59  93 S6        29.94F                  
WILLIMANTIC    CLOUDY    57  54  89 MISG      29.95F                  
OXFORD         CLOUDY    59  59 100 VRB3      29.95F FOG              
$$

MEZ002-015-021-024-NHZ003-005-008-011-012-014-VTZ005-008-241300-
NORTHERN NEW ENGLAND
  
CITY           SKY/WX    TMP DP  RH WIND       PRES   REMARKS
PORTLAND ME    CLOUDY    54  54 100 S7        29.94F                  
6HR MIN TEMP:  54; 6HR MAX TEMP:  56;                                

BANGOR ME      CLOUDY    53  51  93 S10       29.93S FOG              
CONCORD NH     CLOUDY    54  53  97 SE7       29.91F                  
MANCHESTER NH  CLOUDY    56  52  86 S5        29.91F                  
NASHUA NH      CLOUDY    55  55 100 SE3       29.93F                  
PORTSMOUTH NH  PTCLDY    55  53  93 SE8       29.91F                  
JAFFREY NH     CLOUDY    58  55  90 SW5       29.92F                  
KEENE NH       CLOUDY    61  57  87 S6        29.90F                  
BURLINGTON VT  CLOUDY    64  56  75 S17G26    29.78S                  
MT. WASHINGTON NOT AVBL                                               
$$

NYZ052-076-241300-
EASTERN NEW YORK
  
CITY           SKY/WX    TMP DP  RH WIND       PRES   REMARKS
ALBANY         MOCLDY    59  58  96 S13       29.87F                  
6HR MIN TEMP:  58; 6HR MAX TEMP:  60;                                

NEW YORK CITY  CLOUDY    65  58  78 S9        29.93F                  
6HR MIN TEMP:  64; 6HR MAX TEMP:  65;                                

$$
 
ANZALL-241300-
MARINE OBSERVATIONS
  
STATION/POSITION TIME  TEMP    WIND        PRES    VSBY  WAVE
                       AIR SEA DIR/SP/G                  HT/PER
                 (UTC) (F)     (DEG/KT/KT) (MB)    (MI)  (FT/S)
BOSTON BUOY      1150   57 58  150/  8/  8 1012.8F         5/11
BUZZARDS BAY     1100             CALM     1015.7F
NANTUCKET SOUND  1150      62  280/  6/ 12   N/A           1/ 4
MASS BAY-STELLWA 1104   57 58  230/ 12/ 16 1013.5F  1 7/8  5/11
ISLE OF SHOALS   1100   55     230/ 18/ 20 1013.8F
S OF BLOCK IS    1126      63                N/A           6/12
$$

......................KEY.........................
  SKY/WX - SKY CONDITION/PRESENT WEATHER
  TMP    - TEMPERATURE IN FAHRENHEIT
  DWPT   - DEWPOINT IN FAHRENHEIT
  RH     - RELATIVE HUMIDITY IN PERCENT
  WIND   - DIRECTION AND SPEED IN MPH
  PRES   - MEAN SEA LEVEL PRESSURE IN INCHES OF HG
  WCI    - WIND CHILL INDEX
  VSB    - VISIBILITY IN MILES
  HX     - HEAT INDEX
  TC     - TEMPERATURE IN CELSIUS
  VRB    - VARIABLE WIND DIRECTION
  N/A    - NOT AVAILABLE
  
      

Other recent Regional Weather Roundups

Fri Oct 30, 6:04am

Fri Oct 30, 5:04am

Fri Oct 30, 4:04am

Fri Oct 30, 3:04am

Fri Oct 30, 2:04am

Fri Oct 30, 1:04am

Fri Oct 30, 12:04am

Thu Oct 29, 11:04pm

Thu Oct 29, 10:04pm

Thu Oct 29, 9:04pm

Thu Oct 29, 8:04pm

Thu Oct 29, 7:04pm

Thu Oct 29, 6:04pm

Thu Oct 29, 5:05pm

Thu Oct 29, 4:05pm

Thu Oct 29, 3:05pm

Thu Oct 29, 2:04pm

Thu Oct 29, 1:04pm

Thu Oct 29, 12:04pm

Thu Oct 29, 11:04am

Thu Oct 29, 10:04am

Thu Oct 29, 9:04am

Thu Oct 29, 8:04am

Thu Oct 29, 7:04am

Thu Oct 29, 6:04am

Thu Oct 29, 5:04am

Thu Oct 29, 4:04am

Thu Oct 29, 3:04am

Thu Oct 29, 2:04am

Thu Oct 29, 1:05am

Thu Oct 29, 12:04am

Wed Oct 28, 11:05pm

Wed Oct 28, 10:04pm

Wed Oct 28, 9:04pm

Wed Oct 28, 8:04pm

Wed Oct 28, 7:05pm

Wed Oct 28, 6:04pm

Wed Oct 28, 5:05pm

Wed Oct 28, 4:04pm

Wed Oct 28, 3:04pm

Wed Oct 28, 2:04pm

Wed Oct 28, 1:05pm

Wed Oct 28, 12:05pm

Wed Oct 28, 11:05am

Wed Oct 28, 10:04am

Wed Oct 28, 9:04am

Wed Oct 28, 8:04am

Wed Oct 28, 7:04am

Wed Oct 28, 6:04am

Wed Oct 28, 5:05am

Wed Oct 28, 4:04am

Wed Oct 28, 3:04am

Wed Oct 28, 2:04am

Wed Oct 28, 1:05am

Wed Oct 28, 12:04am

Tue Oct 27, 11:04pm

Tue Oct 27, 10:04pm

Tue Oct 27, 9:05pm

Tue Oct 27, 8:04pm

Tue Oct 27, 7:04pm

Tue Oct 27, 6:04pm

Tue Oct 27, 5:04pm

Tue Oct 27, 4:05pm

Tue Oct 27, 3:04pm

Tue Oct 27, 2:04pm

Tue Oct 27, 1:04pm

Tue Oct 27, 12:04pm

Tue Oct 27, 11:04am

Tue Oct 27, 10:04am

Tue Oct 27, 9:04am

Tue Oct 27, 8:04am

Tue Oct 27, 7:04am

Tue Oct 27, 6:04am

Tue Oct 27, 5:04am

Tue Oct 27, 4:04am

Tue Oct 27, 3:04am

Tue Oct 27, 2:05am

Tue Oct 27, 1:04am

Tue Oct 27, 12:04am

Mon Oct 26, 11:05pm

Mon Oct 26, 10:04pm

Mon Oct 26, 9:04pm

Mon Oct 26, 8:04pm

Mon Oct 26, 7:04pm

Mon Oct 26, 6:04pm

Mon Oct 26, 5:04pm

Mon Oct 26, 4:05pm

Mon Oct 26, 2:04pm

Mon Oct 26, 1:04pm

Mon Oct 26, 12:04pm

Mon Oct 26, 11:05am

Mon Oct 26, 10:04am

Mon Oct 26, 9:04am

Mon Oct 26, 8:04am

Mon Oct 26, 7:04am

Mon Oct 26, 6:04am

Mon Oct 26, 5:04am

Mon Oct 26, 4:04am

Mon Oct 26, 3:04am

Mon Oct 26, 2:04am

Mon Oct 26, 1:04am

Mon Oct 26, 12:04am

Sun Oct 25, 11:05pm

Sun Oct 25, 10:04pm

Sun Oct 25, 9:04pm

Sun Oct 25, 8:04pm

Sun Oct 25, 7:04pm

Sun Oct 25, 6:04pm

Sun Oct 25, 5:04pm

Sun Oct 25, 4:05pm

Sun Oct 25, 3:04pm

Sun Oct 25, 2:04pm

Sun Oct 25, 1:04pm

Sun Oct 25, 12:04pm

Sun Oct 25, 11:04am

Sun Oct 25, 10:04am

Sun Oct 25, 9:04am

Sun Oct 25, 8:04am

Sun Oct 25, 7:04am

Sun Oct 25, 6:04am

Sun Oct 25, 5:04am

Sun Oct 25, 4:04am

Sun Oct 25, 3:04am

Sun Oct 25, 2:04am

Sun Oct 25, 1:05am

Sun Oct 25, 12:04am

Sat Oct 24, 11:04pm

Sat Oct 24, 10:04pm

Sat Oct 24, 9:04pm

Sat Oct 24, 8:04pm

Sat Oct 24, 7:04pm

Sat Oct 24, 6:04pm

Sat Oct 24, 5:05pm

Sat Oct 24, 4:04pm

Sat Oct 24, 3:04pm

Sat Oct 24, 2:04pm

Sat Oct 24, 1:05pm

Sat Oct 24, 12:04pm

Sat Oct 24, 11:05am

Sat Oct 24, 10:05am

Sat Oct 24, 9:04am

Sat Oct 24, 7:04am

Sat Oct 24, 6:04am

Sat Oct 24, 5:04am

Sat Oct 24, 4:04am

Sat Oct 24, 3:04am

Sat Oct 24, 2:04am

Sat Oct 24, 1:05am

Sat Oct 24, 12:04am

Fri Oct 23, 11:04pm

Fri Oct 23, 10:04pm

Fri Oct 23, 9:04pm

Fri Oct 23, 8:05pm

Fri Oct 23, 7:04pm

Fri Oct 23, 6:04pm

Fri Oct 23, 5:05pm

Fri Oct 23, 4:04pm

Fri Oct 23, 3:04pm

Fri Oct 23, 2:05pm

Fri Oct 23, 1:04pm

Fri Oct 23, 12:04pm

Fri Oct 23, 11:04am

Fri Oct 23, 10:04am

Fri Oct 23, 9:04am

Fri Oct 23, 8:04am

Fri Oct 23, 7:04am

Meta data:

ID: 2250b7cf-465f-44d2-bddf-f98aa35f15b5
Link: https://api.weather.gov/products/2250b7cf-465f-44d2-bddf-f98aa35f15b5